Location: Lombard
(41.8800°N, 88.0080°W)
Time: 07:09:50
(UTC-06:00)

Transit 4A - Pass Details

Date: 04 December 2023
Orbit: 870 x 973 km, 66.8° (Epoch: 02 March)

Event Time Altitude Azimuth Distance (km) Brightness Sun altitude
Rises 03:38:54 0° 336° (NNW) 3,609 - -37.3°
Reaches altitude 10° 03:41:56 10° 349° (NNW) 2,643 - -36.7°
Exits shadow 03:45:57 25° 28° (NNE) 1,777 9.5 -35.9°
Maximum altitude 03:46:59 26° 44° (NE) 1,724 9.6 -35.8°
Drops below altitude 10° 03:51:54 10° 100° (E) 2,573 11.0 -34.8°
Sets 03:54:48 0° 113° (ESE) 3,494 11.8 -34.3°
